Weather History for Rochester, NY

Change the Weather History Date:

Sunday, March 3, 2013

  Actual Average Record
Temperature  
Mean Temperature 24 °F 30 °F  
Max Temperature 26 °F 38 °F 65 °F (1974)
Min Temperature 21 °F 22 °F -1 °F (1962)
Degree Days  
Heating Degree Days 41 35  
Month to date heating degree days 115 106  
Since 1 July heating degree days 4423 4892  
Cooling Degree Days 0 0  
Month to date cooling degree days 0 0  
Year to date cooling degree days 0 0  
Moisture  
Dew Point 17 °F    
Average Humidity 76    
Maximum Humidity 84    
Minimum Humidity 68    
Precipitation  
Precipitation 0.05 in 0.08 in 2.21 in (1942)
Month to date precipitation 0.13 0.23  
Year to date precipitation 4.46 4.59  
Snow  
Snow 1.90 in 0.70 in 11.00 in (1942)
Month to date snowfall 3.4 2.1  
Since 1 July snowfall 67.3 81.0  
Snow Depth 3.00 in    
Sea Level Pressure  
Sea Level Pressure 29.88 in    
Wind  
Wind Speed 10 mph (NW)    
Max Wind Speed 17 mph    
Max Gust Speed 25 mph    
Visibility 4 miles    
Events Snow    
T = Trace of Precipitation, MM = Missing Value Source: NWS Daily Summary

Daily Weather History Graph

Daily Weather History Graph

Search for Another Location

Airport:

Trip Planner

Search our weather history database for the weather conditions in past years. The results will help you decide how hot, cold, wet, or windy it might be!

Date:

Astronomy

Mar. 03, 2013 Rise Set
Actual Time 6:43 AM EST 6:02 PM EST
Civil Twilight 6:14 AM EST 6:31 PM EST
Nautical Twilight 5:41 AM EST 7:04 PM EST
Astronomical Twilight 5:08 AM EST 7:37 PM EST
Moon No Moon Rise 9:46 AM EST (3/3)
Length of Visible Light 12h 16m
Length of Day
11h 19m
Waning Gibbous, 64% of the Moon is Illuminated
Mar 3
Waning Gibbous
Mar 4
Last Quarter
Mar 11
New
Mar 19
First Quarter
Mar 27
Full

Hourly Weather History & Observations

Time (EST) Temp. Windchill Dew Point Humidity Pressure Visibility Wind Dir Wind Speed Gust Speed Precip Events Conditions
12:54 AM 25.0 °F 14.8 °F 18.0 °F 75% 29.89 in 7.0 mi North 10.4 mph - 0.00 in Snow Light Snow
1:54 AM 24.1 °F 15.2 °F 18.0 °F 77% 29.89 in 10.0 mi North 8.1 mph - 0.00 in Snow Light Snow
2:54 AM 24.1 °F 16.0 °F 18.0 °F 77% 29.88 in 10.0 mi NNW 6.9 mph - 0.00 in Snow Light Snow
3:54 AM 23.0 °F 13.9 °F 17.1 °F 78% 29.88 in 10.0 mi North 8.1 mph - 0.00 in Snow Light Snow
4:45 AM 21.2 °F 12.6 °F 17.6 °F 86% 29.85 in 8.0 mi NNW 6.9 mph - 0.00 in Snow Light Snow
4:54 AM 21.9 °F 15.7 °F 17.1 °F 82% 29.88 in 7.0 mi NNW 4.6 mph - 0.00 in Snow Light Snow
5:17 AM 21.2 °F 14.9 °F 17.6 °F 86% 29.85 in 3.0 mi NW 4.6 mph - 0.00 in Snow Light Snow
5:41 AM 21.2 °F 16.4 °F 17.6 °F 86% 29.85 in 3.0 mi NW 3.5 mph - 0.00 in Snow Light Snow
5:54 AM 21.9 °F 17.2 °F 18.0 °F 85% 29.88 in 4.0 mi NNW 3.5 mph - 0.00 in Snow Light Snow
6:05 AM 21.2 °F 14.9 °F 17.6 °F 86% 29.86 in 3.0 mi NNW 4.6 mph - N/A Snow Light Snow
6:14 AM 21.2 °F 14.9 °F 17.6 °F 86% 29.86 in 2.5 mi NNW 4.6 mph - 0.00 in Snow Light Snow
6:28 AM 21.2 °F 16.4 °F 17.6 °F 86% 29.86 in 1.8 mi NNW 3.5 mph - 0.01 in Snow Light Snow
6:41 AM 21.2 °F 16.4 °F 19.4 °F 93% 29.86 in 2.0 mi NNW 3.5 mph - 0.01 in Snow Light Snow
6:49 AM 21.2 °F 16.4 °F 19.4 °F 93% 29.86 in 1.8 mi NNW 3.5 mph - 0.01 in Snow Light Snow
6:54 AM 21.9 °F 14.5 °F 18.0 °F 85% 29.89 in 1.5 mi NW 5.8 mph - 0.01 in Snow Light Snow
7:05 AM 21.2 °F 10.1 °F 17.6 °F 86% 29.86 in 2.0 mi NNW 10.4 mph - 0.00 in Snow Light Snow
7:46 AM 21.2 °F 12.6 °F 17.6 °F 86% 29.87 in 2.0 mi NNW 6.9 mph - 0.00 in Snow Light Snow
7:54 AM 21.0 °F 12.4 °F 17.1 °F 85% 29.90 in 1.8 mi NNW 6.9 mph - 0.01 in Snow Light Snow
8:01 AM 21.2 °F 13.6 °F 17.6 °F 86% 29.87 in 1.5 mi NNW 5.8 mph - 0.00 in Snow Light Snow
8:18 AM 21.2 °F 11.7 °F 17.6 °F 86% 29.87 in 2.0 mi NW 8.1 mph - 0.00 in Snow Light Snow
8:32 AM 21.2 °F 12.6 °F 17.6 °F 86% 29.88 in 2.0 mi NW 6.9 mph - 0.00 in Snow Light Snow
8:46 AM 21.2 °F 11.7 °F 17.6 °F 86% 29.88 in 2.0 mi NNW 8.1 mph - 0.00 in Snow Light Snow
8:54 AM 21.9 °F 11.0 °F 17.1 °F 82% 29.90 in 2.0 mi NNW 10.4 mph - 0.00 in Snow Light Snow
9:01 AM 21.2 °F 10.9 °F 17.6 °F 86% 29.88 in 1.5 mi NNW 9.2 mph - 0.00 in Snow Light Snow
9:10 AM 21.2 °F 10.9 °F 15.8 °F 80% 29.87 in 3.0 mi NNW 9.2 mph - 0.00 in Snow Light Snow
9:23 AM 21.2 °F 9.5 °F 15.8 °F 80% 29.87 in 2.0 mi NW 11.5 mph - 0.00 in Snow Light Snow
9:54 AM 21.9 °F 13.4 °F 17.1 °F 82% 29.90 in 2.0 mi NW 6.9 mph - 0.00 in Snow Light Snow
10:18 AM 21.2 °F 10.1 °F 15.8 °F 80% 29.87 in 1.5 mi NW 10.4 mph - 0.00 in Snow Light Snow
10:30 AM 23.0 °F 13.9 °F 15.8 °F 74% 29.87 in 3.0 mi WNW 8.1 mph - 0.00 in Snow Light Snow
10:54 AM 23.0 °F 11.7 °F 15.1 °F 72% 29.89 in 3.0 mi NW 11.5 mph - 0.00 in Snow Light Snow
11:24 AM 23.0 °F 12.4 °F 15.8 °F 74% 29.86 in 3.0 mi West 10.4 mph - 0.00 in Snow Light Snow
11:52 AM 23.0 °F 13.1 °F 15.8 °F 74% 29.86 in 3.0 mi NW 9.2 mph - N/A Snow Light Snow
11:54 AM 23.0 °F 11.7 °F 15.1 °F 72% 29.89 in 3.0 mi NW 11.5 mph - 0.00 in Snow Light Snow
12:54 PM 23.0 °F 11.7 °F 14.0 °F 68% 29.88 in 4.0 mi NW 11.5 mph - 0.00 in Snow Light Snow
1:54 PM 23.0 °F 10.6 °F 12.9 °F 65% 29.87 in 9.0 mi West 13.8 mph - 0.00 in   Overcast
2:54 PM 24.1 °F 11.5 °F 12.9 °F 62% 29.87 in 9.0 mi West 15.0 mph - 0.00 in Snow Light Snow
3:54 PM 23.0 °F 11.7 °F 14.0 °F 68% 29.88 in 9.0 mi WNW 11.5 mph - 0.00 in Snow Light Snow
4:54 PM 23.0 °F 11.7 °F 15.1 °F 72% 29.88 in 9.0 mi West 11.5 mph - 0.00 in Snow Light Snow
5:54 PM 23.0 °F 13.9 °F 17.1 °F 78% 29.89 in 5.0 mi West 8.1 mph - 0.00 in Snow Light Snow
6:54 PM 24.1 °F 14.4 °F 18.0 °F 77% 29.90 in 8.0 mi WNW 9.2 mph - 0.00 in Snow Light Snow
7:54 PM 24.1 °F 13.7 °F 18.0 °F 77% 29.90 in 3.0 mi West 10.4 mph - 0.00 in Snow Light Snow
8:05 PM 24.8 °F 15.3 °F 19.4 °F 80% 29.88 in 2.0 mi West 9.2 mph - 0.00 in Snow Light Snow
8:22 PM 24.8 °F 16.1 °F 19.4 °F 80% 29.88 in 1.2 mi West 8.1 mph - 0.01 in Snow Light Snow
8:45 PM 24.8 °F 16.1 °F 19.4 °F 80% 29.89 in 2.5 mi West 8.1 mph - 0.01 in Snow Light Snow
8:54 PM 24.1 °F 13.7 °F 19.9 °F 84% 29.91 in 2.0 mi West 10.4 mph - 0.01 in Snow Light Snow
9:22 PM 24.8 °F 15.3 °F 19.4 °F 80% 29.88 in 3.0 mi WNW 9.2 mph - N/A Snow Light Snow
9:54 PM 24.1 °F 13.7 °F 18.0 °F 77% 29.91 in 8.0 mi WNW 10.4 mph - 0.01 in Snow Light Snow
10:54 PM 24.1 °F 10.6 °F 17.1 °F 75% 29.91 in 9.0 mi WNW 17.3 mph 20.7 mph 0.00 in Snow Light Snow
11:54 PM 24.1 °F 13.7 °F 17.1 °F 75% 29.91 in 9.0 mi West 10.4 mph - 0.00 in Snow Light Snow